NEW BERN NC US current weather conditions

sailwx.info

Wind from 271 at 3 knots gusting 10

Air temperature 23.9° C
Dewpoint 22.9° C

Last reported at 2020-Sep-18 09:17 UTC.
Time now 2020-Sep-18 10:28 UTC

Location: N 35°06' W 077°07'.
View on Google Maps.

See reports from other nearby stations

  
Tides and Currents Weather Stations Pressure Air Temp Water Temp Dewpoint Dewpoint Depression Visibility Wind Speed Wind Dir Waves Ship Positions
date/time (UTC)wind fromknots sea level pressurealtimeterstation pressurevisibilityair tempwater tempwave heightnotes
2020-Sep-18 09:17 271 3 gusting 10 23.9
2020-Sep-18 08:17 259 5 gusting 9 25.0
2020-Sep-18 07:17 215 3 gusting 8 25.6
2020-Sep-18 06:17 205 2 gusting 6 25.0
2020-Sep-18 05:17 23.9
2020-Sep-18 04:17 130 0 gusting 4 23.3
2020-Sep-18 03:17 103 0 gusting 6 23.3
2020-Sep-18 02:17 095 2 gusting 4 23.3
2020-Sep-18 01:17 088 2 gusting 5 23.3
2020-Sep-18 00:17 043 1 gusting 4 23.9
2020-Sep-17 23:17 092 0 gusting 3 23.9
2020-Sep-17 22:17 123 0 gusting 2 23.9
2020-Sep-17 21:17 23.9
2020-Sep-17 20:17 24.4
2020-Sep-17 19:17 093 1 gusting 3 24.4
2020-Sep-17 18:17 114 0 gusting 6 24.4
2020-Sep-17 17:17 095 2 gusting 6 24.4
2020-Sep-17 16:17 093 1 gusting 4 23.9
2020-Sep-17 15:17 107 1 gusting 7 23.9
2020-Sep-17 14:17 095 3 gusting 6 23.3
2020-Sep-17 13:17 110 2 gusting 5 22.2
2020-Sep-17 12:17 099 1 gusting 5 21.7
2020-Sep-17 11:17 099 2 gusting 6 22.2
2020-Sep-17 10:17 088 1 gusting 4 22.2
2020-Sep-17 09:17 053 0 gusting 3 22.2
2020-Sep-17 08:17 22.8
2020-Sep-17 07:17 102 1 gusting 4 23.3
2020-Sep-17 06:17 093 1 gusting 3 23.3
2020-Sep-17 05:17 101 1 gusting 4 23.3
2020-Sep-17 04:17 097 2 gusting 5 23.9
2020-Sep-17 03:17 100 2 gusting 6 23.9
2020-Sep-17 02:17 092 2 gusting 6 23.9
2020-Sep-17 01:17 091 2 gusting 6 23.9
2020-Sep-17 00:17 081 0 gusting 2 23.3
2020-Sep-16 23:17 065 0 gusting 5 23.9
2020-Sep-16 22:17 071 0 gusting 6 24.4
2020-Sep-16 21:17 084 2 gusting 6 23.3
2020-Sep-16 20:17 062 2 gusting 9 23.3
2020-Sep-16 19:17 093 4 gusting 9 25.0
2020-Sep-16 18:17 112 4 gusting 11 26.1
2020-Sep-16 17:17 094 5 gusting 11 27.8
2020-Sep-16 16:17 071 3 gusting 9 26.7
2020-Sep-16 15:17 078 3 gusting 10 25.0
2020-Sep-16 14:17 063 3 gusting 10 23.3
2020-Sep-16 13:17 059 3 gusting 10 21.1
2020-Sep-16 12:17 040 4 gusting 10 18.9
2020-Sep-16 11:17 040 3 gusting 8 17.8